Year,Month,Day,Hour,Minute,Value (Times are PST for temperature in C)
2015,08,04,00,00,16.60
2015,08,04,00,01,16.60
2015,08,04,00,02,16.60
2015,08,04,00,03,16.60
2015,08,04,00,04,16.50
2015,08,04,00,05,16.50
2015,08,04,00,06,16.50
2015,08,04,00,07,16.40
2015,08,04,00,08,16.40
2015,08,04,00,09,16.40
2015,08,04,00,10,16.40
2015,08,04,00,11,16.40
2015,08,04,00,12,16.30
2015,08,04,00,13,16.30
2015,08,04,00,14,16.30
2015,08,04,00,15,16.40
2015,08,04,00,16,16.40
2015,08,04,00,17,16.40
2015,08,04,00,18,16.40
2015,08,04,00,19,16.40
2015,08,04,00,20,16.40
2015,08,04,00,21,16.40
2015,08,04,00,22,16.40
2015,08,04,00,23,16.40
2015,08,04,00,24,16.40
2015,08,04,00,25,16.40
2015,08,04,00,26,16.40
2015,08,04,00,27,16.40
2015,08,04,00,28,16.30
2015,08,04,00,29,16.30
2015,08,04,00,30,16.30
2015,08,04,00,31,16.30
2015,08,04,00,32,16.30
2015,08,04,00,33,16.30
2015,08,04,00,34,16.20
2015,08,04,00,35,16.20
2015,08,04,00,36,16.20
2015,08,04,00,37,16.20
2015,08,04,00,38,16.20
2015,08,04,00,39,16.20
2015,08,04,00,40,16.20
2015,08,04,00,41,16.10
2015,08,04,00,42,16.10
2015,08,04,00,43,16.10
2015,08,04,00,44,16.10
2015,08,04,00,45,16.10
2015,08,04,00,46,16.10
2015,08,04,00,47,16.10
2015,08,04,00,48,16.10
2015,08,04,00,49,16.10
2015,08,04,00,50,16.00
2015,08,04,00,51,16.00
2015,08,04,00,52,16.00
2015,08,04,00,53,16.00
2015,08,04,00,54,16.00
2015,08,04,00,55,16.00
2015,08,04,00,56,16.00
2015,08,04,00,57,16.00
2015,08,04,00,58,15.90
2015,08,04,00,59,15.90
2015,08,04,01,00,15.90
2015,08,04,01,01,15.90
2015,08,04,01,02,15.90
2015,08,04,01,03,15.90
2015,08,04,01,04,15.90
2015,08,04,01,05,15.80
2015,08,04,01,06,15.80
2015,08,04,01,07,15.80
2015,08,04,01,08,15.80
2015,08,04,01,09,15.70
2015,08,04,01,10,15.70
2015,08,04,01,11,15.70
2015,08,04,01,12,15.70
2015,08,04,01,13,15.60
2015,08,04,01,14,15.60
2015,08,04,01,15,15.60
2015,08,04,01,16,15.50
2015,08,04,01,17,15.50
2015,08,04,01,18,15.40
2015,08,04,01,19,15.40
2015,08,04,01,20,15.40
2015,08,04,01,21,15.40
2015,08,04,01,22,15.40
2015,08,04,01,23,15.40
2015,08,04,01,24,15.40
2015,08,04,01,25,15.40
2015,08,04,01,26,15.40
2015,08,04,01,27,15.40
2015,08,04,01,28,15.40
2015,08,04,01,29,15.40
2015,08,04,01,30,15.40
2015,08,04,01,31,15.40
2015,08,04,01,32,15.40
2015,08,04,01,33,15.30
2015,08,04,01,34,15.30
2015,08,04,01,35,15.30
2015,08,04,01,36,15.30
2015,08,04,01,37,15.30
2015,08,04,01,38,15.30
2015,08,04,01,39,15.20
2015,08,04,01,40,15.20
2015,08,04,01,41,15.20
2015,08,04,01,42,15.10
2015,08,04,01,43,15.10
2015,08,04,01,44,15.10
2015,08,04,01,45,15.00
2015,08,04,01,46,15.00
2015,08,04,01,47,14.90
2015,08,04,01,48,14.90
2015,08,04,01,49,14.90
2015,08,04,01,50,14.80
2015,08,04,01,51,14.80
2015,08,04,01,52,14.80
2015,08,04,01,53,14.80
2015,08,04,01,54,14.70
2015,08,04,01,55,14.70
2015,08,04,01,56,14.70
2015,08,04,01,57,14.70
2015,08,04,01,58,14.70
2015,08,04,01,59,14.60
2015,08,04,02,00,14.60
2015,08,04,02,01,14.60
2015,08,04,02,02,14.60
2015,08,04,02,03,14.50
2015,08,04,02,04,14.50
2015,08,04,02,05,14.50
2015,08,04,02,06,14.50
2015,08,04,02,07,14.40
2015,08,04,02,08,14.40
2015,08,04,02,09,14.40
2015,08,04,02,10,14.40
2015,08,04,02,11,14.40
2015,08,04,02,12,14.40
2015,08,04,02,13,14.30
2015,08,04,02,14,14.30
2015,08,04,02,15,14.30
2015,08,04,02,16,14.30
2015,08,04,02,17,14.30
2015,08,04,02,18,14.30
2015,08,04,02,19,14.30
2015,08,04,02,20,14.40
2015,08,04,02,21,14.40
2015,08,04,02,22,14.40
2015,08,04,02,23,14.50
2015,08,04,02,24,14.60
2015,08,04,02,25,14.60
2015,08,04,02,26,14.70
2015,08,04,02,27,14.70
2015,08,04,02,28,14.70
2015,08,04,02,29,14.80
2015,08,04,02,30,14.80
2015,08,04,02,31,14.80
2015,08,04,02,32,14.80
2015,08,04,02,33,14.80
2015,08,04,02,34,14.80
2015,08,04,02,35,14.80
2015,08,04,02,36,14.80
2015,08,04,02,37,14.80
2015,08,04,02,38,14.80
2015,08,04,02,39,14.80
2015,08,04,02,40,14.80
2015,08,04,02,41,14.90
2015,08,04,02,42,14.90
2015,08,04,02,43,14.90
2015,08,04,02,44,14.90
2015,08,04,02,45,14.90
2015,08,04,02,46,14.90
2015,08,04,02,47,14.90
2015,08,04,02,48,14.90
2015,08,04,02,49,14.90
2015,08,04,02,50,14.90
2015,08,04,02,51,14.90
2015,08,04,02,52,14.90
2015,08,04,02,53,14.90
2015,08,04,02,54,14.90
2015,08,04,02,55,14.90
2015,08,04,02,56,14.90
2015,08,04,02,57,14.80
2015,08,04,02,58,14.80
2015,08,04,02,59,14.80
2015,08,04,03,00,14.80
2015,08,04,03,01,14.80
2015,08,04,03,02,14.80
2015,08,04,03,03,14.80
2015,08,04,03,04,14.70
2015,08,04,03,05,14.70
2015,08,04,03,06,14.70
2015,08,04,03,07,14.70
2015,08,04,03,08,14.70
2015,08,04,03,09,14.60
2015,08,04,03,10,14.60
2015,08,04,03,11,14.60
2015,08,04,03,12,14.60
2015,08,04,03,13,14.60
2015,08,04,03,14,14.50
2015,08,04,03,15,14.50
2015,08,04,03,16,14.50
2015,08,04,03,17,14.40
2015,08,04,03,18,14.40
2015,08,04,03,19,14.40
2015,08,04,03,20,14.40
2015,08,04,03,21,14.30
2015,08,04,03,22,14.30
2015,08,04,03,23,14.30
2015,08,04,03,24,14.30
2015,08,04,03,25,14.30
2015,08,04,03,26,14.30
2015,08,04,03,27,14.30
2015,08,04,03,28,14.30
2015,08,04,03,29,14.30
2015,08,04,03,30,14.30
2015,08,04,03,31,14.20
2015,08,04,03,32,14.20
2015,08,04,03,33,14.10
2015,08,04,03,34,14.10
2015,08,04,03,35,14.10
2015,08,04,03,36,14.10
2015,08,04,03,37,14.00
2015,08,04,03,38,14.00
2015,08,04,03,39,14.00
2015,08,04,03,40,13.90
2015,08,04,03,41,13.90
2015,08,04,03,42,13.90
2015,08,04,03,43,13.90
2015,08,04,03,44,13.90
2015,08,04,03,45,13.90
2015,08,04,03,46,13.90
2015,08,04,03,47,13.90
2015,08,04,03,48,13.90
2015,08,04,03,49,13.90
2015,08,04,03,50,13.90
2015,08,04,03,51,13.90
2015,08,04,03,52,13.90
2015,08,04,03,53,13.90
2015,08,04,03,54,13.90
2015,08,04,03,55,13.90
2015,08,04,03,56,13.90
2015,08,04,03,57,13.90
2015,08,04,03,58,13.90
2015,08,04,03,59,13.90
2015,08,04,04,00,13.90
2015,08,04,04,01,13.90
2015,08,04,04,02,13.90
2015,08,04,04,03,13.90
2015,08,04,04,04,13.90
2015,08,04,04,05,13.80
2015,08,04,04,06,13.80
2015,08,04,04,07,13.80
2015,08,04,04,08,13.80
2015,08,04,04,09,13.70
2015,08,04,04,10,13.70
2015,08,04,04,11,13.70
2015,08,04,04,12,13.70
2015,08,04,04,13,13.70
2015,08,04,04,14,13.60
2015,08,04,04,15,13.60
2015,08,04,04,16,13.60
2015,08,04,04,17,13.60
2015,08,04,04,18,13.60
2015,08,04,04,19,13.60
2015,08,04,04,20,13.60
2015,08,04,04,21,13.70
2015,08,04,04,22,13.70
2015,08,04,04,23,13.70
2015,08,04,04,24,13.70
2015,08,04,04,25,13.70
2015,08,04,04,26,13.70
2015,08,04,04,27,13.70
2015,08,04,04,28,13.70
2015,08,04,04,29,13.80
2015,08,04,04,30,13.80
2015,08,04,04,31,13.80
2015,08,04,04,32,13.80
2015,08,04,04,33,13.80
2015,08,04,04,34,13.80
2015,08,04,04,35,13.80
2015,08,04,04,36,13.80
2015,08,04,04,37,13.80
2015,08,04,04,38,13.70
2015,08,04,04,39,13.70
2015,08,04,04,40,13.70
2015,08,04,04,41,13.60
2015,08,04,04,42,13.60
2015,08,04,04,43,13.60
2015,08,04,04,44,13.60
2015,08,04,04,45,13.50
2015,08,04,04,46,13.40
2015,08,04,04,47,13.40
2015,08,04,04,48,13.40
2015,08,04,04,49,13.30
2015,08,04,04,50,13.30
2015,08,04,04,51,13.30
2015,08,04,04,52,13.30
2015,08,04,04,53,13.20
2015,08,04,04,54,13.20
2015,08,04,04,55,13.20
2015,08,04,04,56,13.10
2015,08,04,04,57,13.20
2015,08,04,04,58,13.10
2015,08,04,04,59,13.10
2015,08,04,05,00,13.10
2015,08,04,05,01,13.10
2015,08,04,05,02,13.10
2015,08,04,05,03,13.10
2015,08,04,05,04,13.20
2015,08,04,05,05,13.20
2015,08,04,05,06,13.20
2015,08,04,05,07,13.30
2015,08,04,05,08,13.30
2015,08,04,05,09,13.30
2015,08,04,05,10,13.40
2015,08,04,05,11,13.40
2015,08,04,05,12,13.40
2015,08,04,05,13,13.40
2015,08,04,05,14,13.40
2015,08,04,05,15,13.50
2015,08,04,05,16,13.50
2015,08,04,05,17,13.50
2015,08,04,05,18,13.50
2015,08,04,05,19,13.50
2015,08,04,05,20,13.50
2015,08,04,05,21,13.50
2015,08,04,05,22,13.50
2015,08,04,05,23,13.50
2015,08,04,05,24,13.50
2015,08,04,05,25,13.50
2015,08,04,05,26,13.40
2015,08,04,05,27,13.50
2015,08,04,05,28,13.40
2015,08,04,05,29,13.40
2015,08,04,05,30,13.50
2015,08,04,05,31,13.50
2015,08,04,05,32,13.50
2015,08,04,05,33,13.50
2015,08,04,05,34,13.50
2015,08,04,05,35,13.50
2015,08,04,05,36,13.40
2015,08,04,05,37,13.40
2015,08,04,05,38,13.40
2015,08,04,05,39,13.40
2015,08,04,05,40,13.40
2015,08,04,05,41,13.40
2015,08,04,05,42,13.40
2015,08,04,05,43,13.40
2015,08,04,05,44,13.40
2015,08,04,05,45,13.40
2015,08,04,05,46,13.40
2015,08,04,05,47,13.40
2015,08,04,05,48,13.40
2015,08,04,05,49,13.40
2015,08,04,05,50,13.40
2015,08,04,05,51,13.40
2015,08,04,05,52,13.30
2015,08,04,05,53,13.30
2015,08,04,05,54,13.30
2015,08,04,05,55,13.30
2015,08,04,05,56,13.30
2015,08,04,05,57,13.30
2015,08,04,05,58,13.30
2015,08,04,05,59,13.40
2015,08,04,06,00,13.30
2015,08,04,06,01,13.40
2015,08,04,06,02,13.40
2015,08,04,06,03,13.40
2015,08,04,06,04,13.40
2015,08,04,06,05,13.40
2015,08,04,06,06,13.40
2015,08,04,06,07,13.40
2015,08,04,06,08,13.40
2015,08,04,06,09,13.40
2015,08,04,06,10,13.40
2015,08,04,06,11,13.40
2015,08,04,06,12,13.40
2015,08,04,06,13,13.40
2015,08,04,06,14,13.50
2015,08,04,06,15,13.50
2015,08,04,06,16,13.50
2015,08,04,06,17,13.50
2015,08,04,06,18,13.50
2015,08,04,06,19,13.50
2015,08,04,06,20,13.60
2015,08,04,06,21,13.50
2015,08,04,06,22,13.50
2015,08,04,06,23,13.60
2015,08,04,06,24,13.60
2015,08,04,06,25,13.60
2015,08,04,06,26,13.50
2015,08,04,06,27,13.50
2015,08,04,06,28,13.50
2015,08,04,06,29,13.50
2015,08,04,06,30,13.50
2015,08,04,06,31,13.50
2015,08,04,06,32,13.50
2015,08,04,06,33,13.60
2015,08,04,06,34,13.60
2015,08,04,06,35,13.60
2015,08,04,06,36,13.60
2015,08,04,06,37,13.60
2015,08,04,06,38,13.60
2015,08,04,06,39,13.60
2015,08,04,06,40,13.60
2015,08,04,06,41,13.60
2015,08,04,06,42,13.60
2015,08,04,06,43,13.60
2015,08,04,06,44,13.60
2015,08,04,06,45,13.60
2015,08,04,06,46,13.60
2015,08,04,06,47,13.60
2015,08,04,06,48,13.60
2015,08,04,06,49,13.60
2015,08,04,06,50,13.60
2015,08,04,06,51,13.60
2015,08,04,06,52,13.60
2015,08,04,06,53,13.60
2015,08,04,06,54,13.60
2015,08,04,06,55,13.60
2015,08,04,06,56,13.60
2015,08,04,06,57,13.60
2015,08,04,06,58,13.60
2015,08,04,06,59,13.60
2015,08,04,07,00,13.60
2015,08,04,07,01,13.60
2015,08,04,07,02,13.60
2015,08,04,07,03,13.60
2015,08,04,07,04,13.70
2015,08,04,07,05,13.70
2015,08,04,07,06,13.70
2015,08,04,07,07,13.80
2015,08,04,07,08,13.80
2015,08,04,07,09,13.80
2015,08,04,07,10,13.90
2015,08,04,07,11,13.90
2015,08,04,07,12,14.00
2015,08,04,07,13,14.00
2015,08,04,07,14,14.10
2015,08,04,07,15,14.10
2015,08,04,07,16,14.20
2015,08,04,07,17,14.20
2015,08,04,07,18,14.20
2015,08,04,07,19,14.20
2015,08,04,07,20,14.20
2015,08,04,07,21,14.20
2015,08,04,07,22,14.30
2015,08,04,07,23,14.30
2015,08,04,07,24,14.30
2015,08,04,07,25,14.30
2015,08,04,07,26,14.40
2015,08,04,07,27,14.40
2015,08,04,07,28,14.40
2015,08,04,07,29,14.50
2015,08,04,07,30,14.50
2015,08,04,07,31,14.60
2015,08,04,07,32,14.60
2015,08,04,07,33,14.60
2015,08,04,07,34,14.60
2015,08,04,07,35,14.60
2015,08,04,07,36,14.60
2015,08,04,07,37,14.70
2015,08,04,07,38,14.70
2015,08,04,07,39,14.70
2015,08,04,07,40,14.70
2015,08,04,07,41,14.60
2015,08,04,07,42,14.70
2015,08,04,07,43,14.70
2015,08,04,07,44,14.70
2015,08,04,07,45,14.70
2015,08,04,07,46,14.70
2015,08,04,07,47,14.70
2015,08,04,07,48,14.80
2015,08,04,07,49,14.80
2015,08,04,07,50,14.80
2015,08,04,07,51,14.80
2015,08,04,07,52,14.80
2015,08,04,07,53,14.80
2015,08,04,07,54,14.90
2015,08,04,07,55,14.90
2015,08,04,07,56,15.00
2015,08,04,07,57,15.10
2015,08,04,07,58,15.10
2015,08,04,07,59,15.10
2015,08,04,08,00,15.20
2015,08,04,08,01,15.20
2015,08,04,08,02,15.20
2015,08,04,08,03,15.30
2015,08,04,08,04,15.30
2015,08,04,08,05,15.30
2015,08,04,08,06,15.40
2015,08,04,08,07,15.40
2015,08,04,08,08,15.50
2015,08,04,08,09,15.60
2015,08,04,08,10,15.70
2015,08,04,08,11,15.80
2015,08,04,08,12,15.80
2015,08,04,08,13,15.80
2015,08,04,08,14,15.80
2015,08,04,08,15,15.80
2015,08,04,08,16,15.70
2015,08,04,08,17,15.70
2015,08,04,08,18,15.60
2015,08,04,08,19,15.60
2015,08,04,08,20,15.60
2015,08,04,08,21,15.60
2015,08,04,08,22,15.60
2015,08,04,08,23,15.60
2015,08,04,08,24,15.60
2015,08,04,08,25,15.60
2015,08,04,08,26,15.60
2015,08,04,08,27,15.60
2015,08,04,08,28,15.60
2015,08,04,08,29,15.60
2015,08,04,08,30,15.60
2015,08,04,08,31,15.60
2015,08,04,08,32,15.70
2015,08,04,08,33,15.70
2015,08,04,08,34,15.70
2015,08,04,08,35,15.70
2015,08,04,08,36,15.80
2015,08,04,08,37,15.80
2015,08,04,08,38,15.80
2015,08,04,08,39,15.80
2015,08,04,08,40,15.80
2015,08,04,08,41,15.90
2015,08,04,08,42,15.90
2015,08,04,08,43,16.00
2015,08,04,08,44,16.00
2015,08,04,08,45,16.10
2015,08,04,08,46,16.10
2015,08,04,08,47,16.20
2015,08,04,08,48,16.20
2015,08,04,08,49,16.20
2015,08,04,08,50,16.20
2015,08,04,08,51,16.20
2015,08,04,08,52,16.20
2015,08,04,08,53,16.20
2015,08,04,08,54,16.20
2015,08,04,08,55,16.20
2015,08,04,08,56,16.20
2015,08,04,08,57,16.20
2015,08,04,08,58,16.30
2015,08,04,08,59,16.30
2015,08,04,09,00,16.30
2015,08,04,09,01,16.30
2015,08,04,09,02,16.40
2015,08,04,09,03,16.40
2015,08,04,09,04,16.50
2015,08,04,09,05,16.50
2015,08,04,09,06,16.50
2015,08,04,09,07,16.60
2015,08,04,09,08,16.60
2015,08,04,09,09,16.60
2015,08,04,09,10,16.70
2015,08,04,09,11,16.70
2015,08,04,09,12,16.70
2015,08,04,09,13,16.70
2015,08,04,09,14,16.80
2015,08,04,09,15,16.80
2015,08,04,09,16,16.80
2015,08,04,09,17,16.80
2015,08,04,09,18,16.80
2015,08,04,09,19,16.80
2015,08,04,09,20,16.90
2015,08,04,09,21,16.90
2015,08,04,09,22,16.90
2015,08,04,09,23,16.90
2015,08,04,09,24,17.00
2015,08,04,09,25,17.10
2015,08,04,09,26,17.10
2015,08,04,09,27,17.10
2015,08,04,09,28,17.10
2015,08,04,09,29,17.10
2015,08,04,09,30,17.10
2015,08,04,09,31,17.10
2015,08,04,09,32,17.10
2015,08,04,09,33,17.20
2015,08,04,09,34,17.20
2015,08,04,09,35,17.30
2015,08,04,09,36,17.30
2015,08,04,09,37,17.40
2015,08,04,09,38,17.40
2015,08,04,09,39,17.50
2015,08,04,09,40,17.50
2015,08,04,09,41,17.50
2015,08,04,09,42,17.40
2015,08,04,09,43,17.40
2015,08,04,09,44,17.40
2015,08,04,09,45,17.40
2015,08,04,09,46,17.50
2015,08,04,09,47,17.60
2015,08,04,09,48,17.60
2015,08,04,09,49,17.60
2015,08,04,09,50,17.70
2015,08,04,09,51,17.70
2015,08,04,09,52,17.70
2015,08,04,09,53,17.70
2015,08,04,09,54,17.70
2015,08,04,09,55,17.80
2015,08,04,09,56,17.80
2015,08,04,09,57,17.80
2015,08,04,09,58,17.80
2015,08,04,09,59,17.90
2015,08,04,10,00,17.90
2015,08,04,10,01,17.90
2015,08,04,10,02,18.00
2015,08,04,10,03,18.10
2015,08,04,10,04,18.10
2015,08,04,10,05,18.20
2015,08,04,10,06,18.20
2015,08,04,10,07,18.20
2015,08,04,10,08,18.20
2015,08,04,10,09,18.20
2015,08,04,10,10,18.20
2015,08,04,10,11,18.20
2015,08,04,10,12,18.20
2015,08,04,10,13,18.20
2015,08,04,10,14,18.20
2015,08,04,10,15,18.20
2015,08,04,10,16,18.20
2015,08,04,10,17,18.30
2015,08,04,10,18,18.30
2015,08,04,10,19,18.30
2015,08,04,10,20,18.30
2015,08,04,10,21,18.30
2015,08,04,10,22,18.40
2015,08,04,10,23,18.40
2015,08,04,10,24,18.40
2015,08,04,10,25,18.50
2015,08,04,10,26,18.60
2015,08,04,10,27,18.60
2015,08,04,10,28,18.70
2015,08,04,10,29,18.70
2015,08,04,10,30,18.80
2015,08,04,10,31,18.80
2015,08,04,10,32,18.90
2015,08,04,10,33,18.90
2015,08,04,10,34,19.00
2015,08,04,10,35,19.00
2015,08,04,10,36,19.10
2015,08,04,10,37,19.00
2015,08,04,10,38,19.00
2015,08,04,10,39,19.00
2015,08,04,10,40,19.10
2015,08,04,10,41,19.10
2015,08,04,10,42,19.10
2015,08,04,10,43,19.10
2015,08,04,10,44,19.10
2015,08,04,10,45,19.10
2015,08,04,10,46,19.10
2015,08,04,10,47,19.10
2015,08,04,10,48,19.10
2015,08,04,10,49,19.20
2015,08,04,10,50,19.20
2015,08,04,10,51,19.20
2015,08,04,10,52,19.30
2015,08,04,10,53,19.30
2015,08,04,10,54,19.40
2015,08,04,10,55,19.50
2015,08,04,10,56,19.60
2015,08,04,10,57,19.60
2015,08,04,10,58,19.70
2015,08,04,10,59,19.70
2015,08,04,11,00,19.70
2015,08,04,11,01,19.70
2015,08,04,11,02,19.80
2015,08,04,11,03,19.80
2015,08,04,11,04,19.90
2015,08,04,11,05,20.00
2015,08,04,11,06,20.10
2015,08,04,11,07,20.10
2015,08,04,11,08,20.10
2015,08,04,11,09,20.10
2015,08,04,11,10,20.20
2015,08,04,11,11,20.20
2015,08,04,11,12,20.30
2015,08,04,11,13,20.30
2015,08,04,11,14,20.40
2015,08,04,11,15,20.30
2015,08,04,11,16,20.30
2015,08,04,11,17,20.40
2015,08,04,11,18,20.40
2015,08,04,11,19,20.40
2015,08,04,11,20,20.50
2015,08,04,11,21,20.50
2015,08,04,11,22,20.60
2015,08,04,11,23,20.70
2015,08,04,11,24,20.70
2015,08,04,11,25,20.70
2015,08,04,11,26,20.80
2015,08,04,11,27,20.80
2015,08,04,11,28,20.80
2015,08,04,11,29,20.90
2015,08,04,11,30,20.90
2015,08,04,11,31,21.00
2015,08,04,11,32,21.20
2015,08,04,11,33,21.20
2015,08,04,11,34,21.30
2015,08,04,11,35,21.30
2015,08,04,11,36,21.30
2015,08,04,11,37,21.30
2015,08,04,11,38,21.40
2015,08,04,11,39,21.40
2015,08,04,11,40,21.50
2015,08,04,11,41,21.60
2015,08,04,11,42,21.70
2015,08,04,11,43,21.70
2015,08,04,11,44,21.80
2015,08,04,11,45,21.80
2015,08,04,11,46,21.80
2015,08,04,11,47,21.90
2015,08,04,11,48,21.90
2015,08,04,11,49,22.00
2015,08,04,11,50,22.10
2015,08,04,11,51,22.10
2015,08,04,11,52,21.90
2015,08,04,11,53,21.80
2015,08,04,11,54,21.70
2015,08,04,11,55,21.50
2015,08,04,11,56,21.30
2015,08,04,11,57,21.20
2015,08,04,11,58,21.20
2015,08,04,11,59,21.10
2015,08,04,12,00,21.00
2015,08,04,12,01,20.90
2015,08,04,12,02,20.90
2015,08,04,12,03,21.00
2015,08,04,12,04,21.10
2015,08,04,12,05,21.20
2015,08,04,12,06,21.20
2015,08,04,12,07,21.30
2015,08,04,12,08,21.40
2015,08,04,12,09,21.40
2015,08,04,12,10,21.50
2015,08,04,12,11,21.50
2015,08,04,12,12,21.50
2015,08,04,12,13,21.50
2015,08,04,12,14,21.50
2015,08,04,12,15,21.40
2015,08,04,12,16,21.30
2015,08,04,12,17,21.20
2015,08,04,12,18,21.10
2015,08,04,12,19,20.90
2015,08,04,12,20,20.80
2015,08,04,12,21,20.70
2015,08,04,12,22,20.60
2015,08,04,12,23,20.60
2015,08,04,12,24,20.60
2015,08,04,12,25,20.60
2015,08,04,12,26,20.60
2015,08,04,12,27,20.60
2015,08,04,12,28,20.60
2015,08,04,12,29,20.60
2015,08,04,12,30,20.60
2015,08,04,12,31,20.60
2015,08,04,12,32,20.60
2015,08,04,12,33,20.70
2015,08,04,12,34,20.70
2015,08,04,12,35,20.80
2015,08,04,12,36,20.80
2015,08,04,12,37,20.80
2015,08,04,12,38,20.90
2015,08,04,12,39,20.90
2015,08,04,12,40,20.90
2015,08,04,12,41,20.90
2015,08,04,12,42,21.00
2015,08,04,12,43,21.10
2015,08,04,12,44,21.10
2015,08,04,12,45,21.20
2015,08,04,12,46,21.30
2015,08,04,12,48,21.40
2015,08,04,12,49,21.60
2015,08,04,12,50,21.60
2015,08,04,12,51,21.70
2015,08,04,12,52,21.80
2015,08,04,12,53,21.90
2015,08,04,12,54,21.90
2015,08,04,12,55,21.90
2015,08,04,12,56,21.90
2015,08,04,12,57,21.90
2015,08,04,12,58,21.90
2015,08,04,12,59,21.90
2015,08,04,13,00,22.00
2015,08,04,13,01,22.10
2015,08,04,13,02,22.10
2015,08,04,13,03,22.20
2015,08,04,13,04,22.30
2015,08,04,13,05,22.30
2015,08,04,13,06,22.30
2015,08,04,13,07,22.30
2015,08,04,13,08,22.40
2015,08,04,13,09,22.40
2015,08,04,13,10,22.60
2015,08,04,13,11,22.70
2015,08,04,13,12,22.80
2015,08,04,13,13,22.80
2015,08,04,13,14,22.90
2015,08,04,13,15,23.00
2015,08,04,13,16,23.10
2015,08,04,13,17,23.10
2015,08,04,13,18,23.10
2015,08,04,13,19,23.20
2015,08,04,13,20,23.20
2015,08,04,13,21,23.30
2015,08,04,13,22,23.40
2015,08,04,13,23,23.60
2015,08,04,13,24,23.70
2015,08,04,13,25,23.80
2015,08,04,13,26,23.90
2015,08,04,13,27,24.00
2015,08,04,13,28,24.10
2015,08,04,13,29,24.20
2015,08,04,13,30,24.20
2015,08,04,13,31,24.30
2015,08,04,13,32,24.20
2015,08,04,13,33,24.30
2015,08,04,13,34,24.30
2015,08,04,13,35,24.40
2015,08,04,13,36,24.50
2015,08,04,13,37,24.60
2015,08,04,13,38,24.70
2015,08,04,13,39,24.80
2015,08,04,13,40,24.80
2015,08,04,13,41,24.90
2015,08,04,13,42,24.90
2015,08,04,13,43,24.80
2015,08,04,13,44,24.60
2015,08,04,13,45,24.50
2015,08,04,13,46,24.30
2015,08,04,13,47,24.20
2015,08,04,13,48,24.20
2015,08,04,13,49,24.10
2015,08,04,13,50,24.00
2015,08,04,13,51,23.90
2015,08,04,13,52,23.80
2015,08,04,13,53,23.80
2015,08,04,13,54,23.80
2015,08,04,13,55,23.80
2015,08,04,13,56,23.80
2015,08,04,13,57,23.90
2015,08,04,13,58,23.90
2015,08,04,13,59,23.90
2015,08,04,14,00,23.90
2015,08,04,14,01,23.90
2015,08,04,14,02,23.90
2015,08,04,14,03,23.80
2015,08,04,14,04,23.70
2015,08,04,14,05,23.70
2015,08,04,14,06,23.70
2015,08,04,14,07,23.80
2015,08,04,14,08,23.80
2015,08,04,14,09,23.80
2015,08,04,14,10,23.80
2015,08,04,14,11,23.80
2015,08,04,14,12,23.90
2015,08,04,14,13,24.00
2015,08,04,14,14,24.10
2015,08,04,14,15,24.20
2015,08,04,14,17,24.30
2015,08,04,14,18,24.40
2015,08,04,14,19,24.40
2015,08,04,14,20,24.40
2015,08,04,14,21,24.40
2015,08,04,14,22,24.30
2015,08,04,14,23,24.30
2015,08,04,14,24,24.30
2015,08,04,14,25,24.30
2015,08,04,14,26,24.30
2015,08,04,14,27,24.20
2015,08,04,14,28,24.20
2015,08,04,14,29,24.30
2015,08,04,14,30,24.30
2015,08,04,14,31,24.30
2015,08,04,14,32,24.30
2015,08,04,14,33,24.30
2015,08,04,14,34,24.30
2015,08,04,14,35,24.30
2015,08,04,14,36,24.30
2015,08,04,14,37,24.30
2015,08,04,14,38,24.30
2015,08,04,14,39,24.40
2015,08,04,14,40,24.60
2015,08,04,14,41,24.60
2015,08,04,14,42,24.70
2015,08,04,14,43,24.80
2015,08,04,14,44,24.80
2015,08,04,14,45,24.80
2015,08,04,14,46,24.70
2015,08,04,14,47,24.70
2015,08,04,14,48,24.70
2015,08,04,14,50,24.60
2015,08,04,14,51,24.40
2015,08,04,14,52,24.30
2015,08,04,14,53,24.30
2015,08,04,14,54,24.30
2015,08,04,14,55,24.40
2015,08,04,14,56,24.40
2015,08,04,14,57,24.40
2015,08,04,14,58,24.40
2015,08,04,14,59,24.40
2015,08,04,15,00,24.40
2015,08,04,15,01,24.40
2015,08,04,15,02,24.40
2015,08,04,15,03,24.30
2015,08,04,15,04,24.30
2015,08,04,15,05,24.40
2015,08,04,15,06,24.40
2015,08,04,15,07,24.60
2015,08,04,15,08,24.60
2015,08,04,15,09,24.70
2015,08,04,15,10,24.80
2015,08,04,15,11,24.80
2015,08,04,15,12,24.80
2015,08,04,15,13,24.80
2015,08,04,15,14,24.80
2015,08,04,15,15,24.80
2015,08,04,15,16,24.80
2015,08,04,15,17,24.80
2015,08,04,15,18,24.80
2015,08,04,15,19,24.80
2015,08,04,15,20,24.90
2015,08,04,15,21,24.90
2015,08,04,15,22,24.90
2015,08,04,15,23,24.90
2015,08,04,15,25,24.80
2015,08,04,15,26,24.70
2015,08,04,15,27,24.60
2015,08,04,15,28,24.60
2015,08,04,15,29,24.60
2015,08,04,15,30,24.50
2015,08,04,15,31,24.60
2015,08,04,15,32,24.60
2015,08,04,15,33,24.60
2015,08,04,15,34,24.60
2015,08,04,15,35,24.70
2015,08,04,15,36,24.60
2015,08,04,15,37,24.60
2015,08,04,15,38,24.60
2015,08,04,15,39,24.70
2015,08,04,15,40,24.70
2015,08,04,15,41,24.70
2015,08,04,15,42,24.70
2015,08,04,15,43,24.70
2015,08,04,15,44,24.70
2015,08,04,15,45,24.70
2015,08,04,15,46,24.70
2015,08,04,15,47,24.80
2015,08,04,15,48,24.80
2015,08,04,15,49,24.80
2015,08,04,15,50,24.80
2015,08,04,15,51,24.80
2015,08,04,15,52,24.90
2015,08,04,15,53,24.90
2015,08,04,15,54,25.00
2015,08,04,15,55,25.10
2015,08,04,15,56,25.10
2015,08,04,15,57,25.10
2015,08,04,15,58,25.10
2015,08,04,15,59,25.10
2015,08,04,16,00,25.20
2015,08,04,16,01,25.20
2015,08,04,16,02,25.20
2015,08,04,16,03,25.30
2015,08,04,16,04,25.30
2015,08,04,16,05,25.30
2015,08,04,16,06,25.30
2015,08,04,16,07,25.30
2015,08,04,16,08,25.30
2015,08,04,16,09,25.40
2015,08,04,16,10,25.30
2015,08,04,16,11,25.30
2015,08,04,16,12,25.20
2015,08,04,16,13,25.20
2015,08,04,16,14,25.20
2015,08,04,16,15,25.10
2015,08,04,16,16,25.10
2015,08,04,16,17,25.10
2015,08,04,16,18,25.10
2015,08,04,16,19,25.10
2015,08,04,16,21,25.10
2015,08,04,16,22,25.10
2015,08,04,16,24,25.20
2015,08,04,16,25,25.30
2015,08,04,16,26,25.30
2015,08,04,16,27,25.30
2015,08,04,16,28,25.40
2015,08,04,16,29,25.40
2015,08,04,16,30,25.50
2015,08,04,16,31,25.60
2015,08,04,16,32,25.60
2015,08,04,16,33,25.70
2015,08,04,16,34,25.70
2015,08,04,16,35,25.80
2015,08,04,16,36,25.80
2015,08,04,16,37,25.80
2015,08,04,16,38,25.80
2015,08,04,16,39,25.80
2015,08,04,16,40,25.70
2015,08,04,16,41,25.70
2015,08,04,16,42,25.70
2015,08,04,16,43,25.70
2015,08,04,16,44,25.70
2015,08,04,16,45,25.80
2015,08,04,16,46,25.80
2015,08,04,16,47,25.80
2015,08,04,16,48,25.80
2015,08,04,16,49,25.80
2015,08,04,16,50,25.70
2015,08,04,16,51,25.70
2015,08,04,16,52,25.70
2015,08,04,16,53,25.70
2015,08,04,16,54,25.70
2015,08,04,16,55,25.70
2015,08,04,16,56,25.80
2015,08,04,16,57,25.70
2015,08,04,16,58,25.70
2015,08,04,16,59,25.60
2015,08,04,17,00,25.50
2015,08,04,17,01,25.40
2015,08,04,17,02,25.30
2015,08,04,17,03,25.20
2015,08,04,17,04,25.10
2015,08,04,17,05,24.90
2015,08,04,17,06,24.90
2015,08,04,17,07,24.90
2015,08,04,17,08,24.90
2015,08,04,17,09,24.90
2015,08,04,17,10,24.80
2015,08,04,17,11,24.80
2015,08,04,17,12,24.80
2015,08,04,17,13,24.80
2015,08,04,17,14,24.70
2015,08,04,17,15,24.60
2015,08,04,17,16,24.40
2015,08,04,17,17,24.40
2015,08,04,17,18,24.40
2015,08,04,17,19,24.40
2015,08,04,17,20,24.40
2015,08,04,17,21,24.40
2015,08,04,17,22,24.40
2015,08,04,17,23,24.40
2015,08,04,17,24,24.40
2015,08,04,17,25,24.30